Time,TemperatureF,DewpointF,PressureIn,WindDirection,WindDirectionDegrees,WindSpeedMPH,WindSpeedGustMPH,Humidity,HourlyPrecipIn,Conditions,Clouds,dailyrainin,SoftwareType,DateUTC
2015-04-25 00:02:00,44.8,33.3,30.04,NNW,332,0.0,2.0,64,-99.99,,,0.00,meteobridge,2015-04-25 07:02:00,
2015-04-25 00:07:00,44.8,33.8,30.04,North,0,0.0,0.0,65,-99.99,,,0.00,meteobridge,2015-04-25 07:07:00,
2015-04-25 00:12:00,45.0,34.0,30.03,NW,309,0.0,2.0,65,-99.99,,,0.00,meteobridge,2015-04-25 07:12:00,
2015-04-25 00:17:00,45.0,34.3,30.03,SSW,210,0.0,7.0,66,-99.99,,,0.00,meteobridge,2015-04-25 07:17:00,
2015-04-25 00:22:00,45.0,34.3,30.03,NE,54,0.0,8.0,66,-99.99,,,0.00,meteobridge,2015-04-25 07:22:00,
2015-04-25 00:27:00,44.8,34.2,30.03,NE,54,0.0,0.0,66,-99.99,,,0.00,meteobridge,2015-04-25 07:27:00,
2015-04-25 00:33:00,45.0,34.7,30.03,NE,48,0.0,0.0,67,-99.99,,,0.00,meteobridge,2015-04-25 07:33:00,
2015-04-25 00:38:00,45.0,34.3,30.03,NE,48,0.0,1.0,66,-99.99,,,0.00,meteobridge,2015-04-25 07:38:00,
2015-04-25 00:43:00,45.0,34.7,30.03,South,172,2.0,3.0,67,-99.99,,,0.00,meteobridge,2015-04-25 07:43:00,
2015-04-25 00:48:00,44.8,34.2,30.03,SSW,202,0.9,2.0,66,-99.99,,,0.00,meteobridge,2015-04-25 07:48:00,
2015-04-25 00:53:00,44.8,34.5,30.03,North,0,4.9,6.0,67,-99.99,,,0.00,meteobridge,2015-04-25 07:53:00,
2015-04-25 00:58:00,44.4,34.5,30.03,North,0,0.9,5.0,68,-99.99,,,0.00,meteobridge,2015-04-25 07:58:00,
2015-04-25 01:03:00,44.4,34.9,30.03,North,0,0.0,9.0,69,-99.99,,,0.00,meteobridge,2015-04-25 08:03:00,
2015-04-25 01:08:00,44.4,34.9,30.02,North,0,2.0,10.0,69,-99.99,,,0.00,meteobridge,2015-04-25 08:08:00,
2015-04-25 01:13:00,44.4,35.6,30.02,North,0,0.9,6.0,71,-99.99,,,0.00,meteobridge,2015-04-25 08:13:00,
2015-04-25 01:18:00,44.4,35.6,30.02,South,176,0.9,5.0,71,-99.99,,,0.00,meteobridge,2015-04-25 08:18:00,
2015-04-25 01:23:00,44.2,35.8,30.02,North,0,4.0,6.0,72,-99.99,,,0.00,meteobridge,2015-04-25 08:23:00,
2015-04-25 01:28:00,44.2,35.8,30.02,North,356,0.0,2.0,72,-99.99,,,0.00,meteobridge,2015-04-25 08:28:00,
2015-04-25 01:33:00,44.2,35.8,30.02,North,0,2.0,6.0,72,-99.99,,,0.00,meteobridge,2015-04-25 08:33:00,
2015-04-25 01:38:00,44.2,36.1,30.00,NW,305,0.9,3.0,73,-99.99,,,0.00,meteobridge,2015-04-25 08:38:00,
2015-04-25 01:44:00,44.1,36.0,30.00,North,349,0.0,3.0,73,-99.99,,,0.00,meteobridge,2015-04-25 08:44:00,
2015-04-25 01:49:00,44.1,36.3,30.00,North,0,0.0,5.0,74,-99.99,,,0.00,meteobridge,2015-04-25 08:49:00,
2015-04-25 01:54:00,44.1,36.3,30.00,North,0,0.0,6.0,74,-99.99,,,0.00,meteobridge,2015-04-25 08:54:00,
2015-04-25 01:59:00,44.1,36.3,30.00,North,0,0.9,1.0,74,-99.99,,,0.00,meteobridge,2015-04-25 08:59:00,
2015-04-25 02:04:00,44.1,36.7,30.00,NNW,328,0.0,2.0,75,-99.99,,,0.00,meteobridge,2015-04-25 09:04:00,
2015-04-25 02:09:00,44.1,37.0,30.00,SSW,203,4.0,6.0,76,-99.99,,,0.00,meteobridge,2015-04-25 09:09:00,
2015-04-25 02:14:00,44.1,37.0,30.00,WSW,244,0.0,2.0,76,-99.99,,,0.00,meteobridge,2015-04-25 09:14:00,
2015-04-25 02:19:00,43.9,37.2,30.00,SSE,154,0.0,5.0,77,-99.99,,,0.00,meteobridge,2015-04-25 09:19:00,
2015-04-25 02:24:00,43.9,37.4,29.98,South,182,0.0,0.0,78,-99.99,,,0.00,meteobridge,2015-04-25 09:24:00,
2015-04-25 02:29:00,43.7,37.0,29.98,SW,230,2.0,3.0,77,-99.99,,,0.00,meteobridge,2015-04-25 09:29:00,
2015-04-25 02:34:00,43.7,37.2,29.98,North,0,0.9,2.0,78,-99.99,,,0.00,meteobridge,2015-04-25 09:34:00,
2015-04-25 02:39:00,43.7,37.6,29.99,NNW,337,2.0,3.0,79,-99.99,,,0.00,meteobridge,2015-04-25 09:39:00,
2015-04-25 02:44:00,43.7,37.6,29.99,North,0,0.0,2.0,79,-99.99,,,0.00,meteobridge,2015-04-25 09:44:00,
2015-04-25 02:49:00,43.7,37.6,29.99,NNW,340,0.0,2.0,79,-99.99,,,0.00,meteobridge,2015-04-25 09:49:00,
2015-04-25 02:55:00,43.7,37.9,29.99,North,0,0.9,1.0,80,-99.99,,,0.00,meteobridge,2015-04-25 09:55:00,
2015-04-25 02:59:00,43.5,37.8,29.99,North,0,0.0,8.0,80,-99.99,,,0.00,meteobridge,2015-04-25 09:59:00,
2015-04-25 03:05:00,43.5,37.8,29.99,North,0,0.0,0.0,80,-99.99,,,0.00,meteobridge,2015-04-25 10:05:00,
2015-04-25 03:10:00,43.3,37.6,30.00,North,0,0.0,2.0,80,-99.99,,,0.00,meteobridge,2015-04-25 10:10:00,
2015-04-25 03:15:00,43.3,37.9,30.00,North,0,0.9,1.0,81,-99.99,,,0.00,meteobridge,2015-04-25 10:15:00,
2015-04-25 03:20:00,43.3,37.6,30.00,SW,236,2.0,3.0,80,-99.99,,,0.00,meteobridge,2015-04-25 10:20:00,
2015-04-25 03:25:00,43.2,38.1,29.99,North,0,2.0,4.0,82,-99.99,,,0.00,meteobridge,2015-04-25 10:25:00,
2015-04-25 03:30:00,43.2,38.1,29.99,WSW,241,0.0,1.0,82,-99.99,,,0.00,meteobridge,2015-04-25 10:30:00,
2015-04-25 03:35:00,43.0,37.9,29.99,ESE,103,0.0,0.0,82,-99.99,,,0.00,meteobridge,2015-04-25 10:35:00,
2015-04-25 03:40:00,42.8,37.9,30.00,South,176,0.0,1.0,83,-99.99,,,0.00,meteobridge,2015-04-25 10:40:00,
2015-04-25 03:45:00,42.8,37.8,30.00,WNW,299,0.0,2.0,82,-99.99,,,0.00,meteobridge,2015-04-25 10:45:00,
2015-04-25 03:50:00,42.6,37.8,30.00,WSW,250,0.0,1.0,83,-99.99,,,0.00,meteobridge,2015-04-25 10:50:00,
2015-04-25 03:55:00,42.4,37.6,30.00,North,0,0.0,2.0,83,-99.99,,,0.00,meteobridge,2015-04-25 10:55:00,
2015-04-25 04:01:00,42.4,37.6,30.00,NW,320,0.0,0.0,83,-99.99,,,0.00,meteobridge,2015-04-25 11:01:00,
2015-04-25 04:06:00,42.4,37.6,30.00,NW,315,0.0,2.0,83,-99.99,,,0.00,meteobridge,2015-04-25 11:06:00,
2015-04-25 04:11:00,42.4,37.6,30.01,North,350,2.0,2.0,83,-99.99,,,0.00,meteobridge,2015-04-25 11:11:00,
2015-04-25 04:16:00,42.3,37.8,30.01,East,90,0.9,5.0,84,-99.99,,,0.00,meteobridge,2015-04-25 11:16:00,
2015-04-25 04:21:00,42.3,38.1,30.01,East,93,0.0,1.0,85,-99.99,,,0.00,meteobridge,2015-04-25 11:21:00,
2015-04-25 04:26:00,42.1,37.9,30.01,East,99,0.0,3.0,85,-99.99,,,0.00,meteobridge,2015-04-25 11:26:00,
2015-04-25 04:31:00,42.3,38.7,30.01,East,99,0.0,0.0,87,-99.99,,,0.00,meteobridge,2015-04-25 11:31:00,
2015-04-25 04:36:00,42.1,37.9,30.01,East,96,0.0,0.0,85,-99.99,,,0.00,meteobridge,2015-04-25 11:36:00,
2015-04-25 04:41:00,42.3,38.1,30.01,East,88,0.0,0.0,85,-99.99,,,0.00,meteobridge,2015-04-25 11:41:00,
2015-04-25 04:46:00,42.3,38.3,30.01,South,178,2.9,5.0,86,-99.99,,,0.00,meteobridge,2015-04-25 11:46:00,
2015-04-25 04:51:00,42.1,37.9,30.01,ENE,78,2.0,4.0,85,-99.99,,,0.00,meteobridge,2015-04-25 11:51:00,
2015-04-25 04:56:00,42.1,37.9,30.01,SW,215,0.9,3.0,85,-99.99,,,0.00,meteobridge,2015-04-25 11:56:00,
2015-04-25 05:01:00,41.9,37.8,30.01,West,261,0.9,2.0,85,-99.99,,,0.00,meteobridge,2015-04-25 12:01:00,
2015-04-25 05:06:00,42.1,37.9,30.01,South,169,0.0,0.0,85,-99.99,,,0.00,meteobridge,2015-04-25 12:06:00,
2015-04-25 05:11:00,42.1,37.9,30.01,South,184,0.9,2.0,85,-99.99,,,0.00,meteobridge,2015-04-25 12:11:00,
2015-04-25 05:16:00,41.9,37.4,30.01,SSE,150,0.0,1.0,84,-99.99,,,0.00,meteobridge,2015-04-25 12:16:00,
2015-04-25 05:21:00,41.7,37.6,30.01,SSW,195,0.0,0.0,85,-99.99,,,0.00,meteobridge,2015-04-25 12:21:00,
2015-04-25 05:26:00,41.7,37.6,30.01,ESE,119,0.9,1.0,85,-99.99,,,0.00,meteobridge,2015-04-25 12:26:00,
2015-04-25 05:31:00,41.7,37.8,30.01,SE,137,0.9,2.0,86,-99.99,,,0.00,meteobridge,2015-04-25 12:31:00,
2015-04-25 05:36:00,41.7,37.8,30.01,ENE,58,0.0,1.0,86,-99.99,,,0.00,meteobridge,2015-04-25 12:36:00,
2015-04-25 05:42:00,41.7,37.6,30.03,ENE,64,0.0,0.0,85,-99.99,,,0.00,meteobridge,2015-04-25 12:42:00,
2015-04-25 05:47:00,41.7,37.6,30.03,ENE,59,0.0,0.0,85,-99.99,,,0.00,meteobridge,2015-04-25 12:47:00,